Vertical_Velocity
-3 -1 1 -2 -1 1 -1 -1 2 -4 -2 2 3 -0 0 6 -1 -0 4 1 5 2 2 5 -1 0 -9 -6 -6 -6 -4 5 5 7 -3 2 -1 -2 -2 4 2 2 -1 -2 -1 4 2 -4 2
-2 -1 1 -1 -1 -1 -3 -1 1 -1 0 -3 -0 -2 -6 -5 -3 -0 -4 -4 3 3 1 -6 4 1 -2 3 1 10 -0 0 -4 3 3 3 3 2 2 -1 -2 -2 2 1 6 3 -5 -4 0
-0 -3 1 0 -2 0 -2 -4 2 -1 -5 -7 -6 -1 -2 -4 -1 -2 -0 -1 -3 10 -2 1 2 -1 2 5 -0 -4 2 -0 -2 -4 -1 1 2 -2 -2 -2 -0 -3 -2 -1 6 -2 -2 -7 2
-2 -1 1 0 -1 -4 -1 -0 -1 -2 1 -5 -2 -4 1 -4 -2 -0 -13 -10 -9 4 -1 -1 -2 -0 2 4 1 1 -10 12 -4 1 1 -3 1 -2 -3 0 4 1 -3 2 3 -1 -2 -1 -4
-0 2 2 -0 -1 -1 -3 -3 1 -2 -4 -2 -2 -0 -0 -2 -1 -2 -0 6 -8 -4 3 15 -1 2 -4 -2 5 -0 15 3 -2 4 -4 2 -0 -1 -4 3 -1 -2 -5 5 7 -1 2 -4 -3
-3 5 0 0 0 -1 -3 -0 -3 -4 -2 -3 1 2 -0 -2 -5 -5 3 -1 18 24 -4 6 -0 -1 -7 -6 -5 -8 -6 1 1 8 -9 0 -0 -2 1 -4 -2 2 -1 0 6 1 -1 -2 -3
-2 4 1 0 -1 -4 -5 0 -3 -4 -3 -1 3 0 -0 -1 -5 -2 -1 2 -2 -5 3 1 6 26 56 -2 18 -2 5 27 2 5 -2 -1 2 1 -1 -11 0 1 -2 2 11 2 -2 -2 -1
-1 2 1 -1 -4 -3 -3 -4 -6 -2 2 2 -2 3 2 -1 3 0 -1 11 1 5 10 27 -3 -3 -4 2 18 26 0 27 -1 26 -1 -2 -4 -2 -2 2 -6 0 -2 0 8 14 1 -3 -1
1 1 1 -2 -2 1 1 -7 -1 -1 -2 6 3 1 1 -3 -4 1 3 -4 -1 19 10 17 1 2 8 -10 4 40 21 15 8 7 -3 -3 -0 -2 3 1 -4 -1 -0 -5 7 9 6 2 -5
0 0 -1 -0 -3 1 -3 -5 -3 -1 1 2 1 -0 -3 2 -5 -2 -4 2 -8 -9 5 5 9 -3 1 -23 4 8 -7 27 1 14 -2 -1 0 4 1 -1 -3 -5 -1 -3 -1 2 6 3 1
1 1 -2 1 -1 3 -5 -6 -5 -2 2 1 1 1 -1 1 -1 -2 2 0 -3 -3 -1 -3 -5 -1 11 41 16 -3 0 5 1 4 7 -11 1 7 3 -3 -3 -3 -3 -1 -3 2 -1 2 1
-1 -2 -0 4 4 1 -6 -6 -5 -3 -2 -0 -1 2 0 -3 2 2 -1 1 -5 1 -7 -2 -8 -4 -4 17 5 27 23 9 16 8 1 -6 6 4 1 -2 -3 -1 -3 -1 0 1 2 1 2
-2 5 -4 -2 1 -2 -4 -4 -0 -2 -1 -1 -0 5 -0 6 2 -2 0 3 -0 3 -2 -5 -5 -2 1 -1 3 5 31 12 -5 -1 -6 -1 3 -2 1 3 3 1 1 0 1 -1 5 1 2
-0 -3 -4 -3 0 -2 -4 -1 -1 -1 -3 0 -1 7 -0 -1 -1 -3 5 0 4 1 2 2 0 -3 -3 -0 -0 12 -1 -12 -17 8 5 18 11 3 6 16 1 3 -2 -0 -3 2 3 3 -0
4 0 -3 -0 -0 -1 -5 1 0 -2 -3 -3 -2 6 1 -2 -1 1 2 1 -2 3 -1 2 3 -2 -3 -3 -2 -6 5 5 5 11 7 2 -2 0 2 2 0 1 1 2 -1 -1 1 -0 2
4 3 -3 -3 -7 -1 -4 -2 -2 -3 -2 1 -5 2 -2 5 2 1 5 -3 -4 4 -5 -2 -2 -5 -0 -3 -2 -5 1 -3 2 -2 -5 -2 1 -0 3 4 3 -0 -0 2 2 -0 2 6 0
2 6 0 -1 -8 0 -3 -4 2 -5 -3 1 -4 -4 5 1 -4 -0 1 8 -2 -1 -1 1 -3 0 -0 1 -2 1 2 1 0 -2 1 5 4 2 2 2 2 1 -4 3 0 2 1 -3 2
-2 4 1 10 -4 -2 -1 -4 1 -5 -8 1 -5 1 -2 -3 -4 -0 1 2 4 1 -5 -2 1 3 -2 1 2 2 5 3 1 2 3 4 3 2 4 4 0 -1 -2 -2 -2 1 3 -1 1
-1 4 3 -1 -1 2 -2 -7 4 -4 -9 -7 -3 1 -1 -2 -4 -7 -8 6 -5 1 0 1 1 -1 -3 -1 2 6 3 3 2 4 -1 -1 -0 -0 1 1 -1 -5 2 -0 3 0 1 -4 1
-2 -1 7 3 -2 1 -4 -5 0 -1 -7 -1 1 -7 0 6 3 3 -7 -8 -1 3 -5 2 -1 -0 -4 3 -7 0 3 2 -3 -2 1 -0 0 2 5 -1 -2 -2 -2 2 -3 4 -0 -1 3
2 -2 5 3 -2 -1 -6 -2 -2 -0 -1 -4 -4 -1 -6 3 -2 5 7 3 -11 9 -5 7 4 3 1 -8 0 3 -2 -1 4 -1 -2 1 1 -1 4 -1 0 2 -1 1 0 4 -3 2 2
-1 5 -0 4 1 0 -5 4 -3 1 -0 0 -4 -4 -2 1 2 4 -0 1 8 -8 -5 -3 -5 8 -2 5 -0 2 -1 2 6 -1 -1 -4 5 5 -2 3 3 -5 -4 2 -1 -0 0 0 -1
15 -1 -1 1 3 -2 -4 -3 1 0 -3 1 -1 -0 1 -1 0 -2 -0 3 1 -0 3 9 1 14 -1 0 4 -4 6 -4 2 -6 1 1 2 -2 4 -4 -0 -3 0 -0 2 0 2 0 2
8 -2 -1 -4 -2 -4 4 -9 8 3 -4 -3 -5 -1 -3 -2 0 -0 -4 -1 -2 1 4 4 -0 -7 2 -3 2 -4 1 7 3 -1 3 -1 3 3 -0 -4 -7 2 0 -2 -0 2 7 2 2
-4 3 -4 -10 -5 3 0 -8 4 4 2 -1 -3 -5 -3 -2 -4 -0 -0 -2 -3 -3 -3 -3 -3 -1 -2 -1 3 4 4 0 -0 2 1 1 -2 -3 -2 -0 -0 -2 -1 2 -2 5 -1 0 0
-0 4 1 -4 3 7 -6 -9 2 3 3 7 9 1 -5 -2 -1 -2 -1 -4 -3 -1 -1 1 1 1 4 2 -0 1 -2 -2 -4 2 -4 -1 -0 1 -0 -4 2 0 -1 -1 3 1 1 -2 -3
11 -18 15 2 -4 -6 -1 -7 -3 2 3 3 0 0 -1 -2 -2 1 -2 -1 -1 -1 1 -1 -0 1 -1 -3 -3 -4 -0 -1 -0 1 0 0 0 1 -2 1 -2 -2 -1 -4 16 13 11 -4 -1
-6 16 -5 -0 -9 -1 -1 -2 -1 -3 1 2 5 1 1 -4 -4 -0 2 1 -3 -2 -0 0 0 1 1 5 3 0 0 0 1 -2 2 1 1 4 5 -3 -3 -3 4 13 24 14 58 9 -0
-2 -7 -13 -1 -6 -4 -7 3 2 -5 0 -2 -2 -0 0 -2 -3 0 -1 -2 0 -5 -0 9 -1 -1 -2 -0 0 0 -2 -5 -2 -1 -1 3 3 1 15 29 34 15 -4 84 4 7 32 -1 -2
-7 0 6 -3 0 -5 -3 3 2 -2 -4 -1 -1 -2 -2 -3 -2 3 -1 -2 -3 -2 1 2 6 -1 7 11 8 -10 -0 -5 -2 -0 1 0 -0 10 11 29 3 -5 -6 -7 3 -0 -8 -10 -5
Height
5813 5810 5807 5803 5802 5793 5789 5784 5780 5780 5780 5780 5777 5776 5775 5774 5776 5777 5776 5776 5776 5775 5777 5780 5781 5781 5782 5785 5788 5791 5797 5800 5799 5801 5809 5815 5817 5821 5824 5828 5828 5829 5830 5831 5832 5830 5828 5831 5831
5810 5806 5803 5799 5793 5787 5784 5779 5778 5778 5776 5774 5773 5772 5771 5771 5771 5771 5771 5770 5771 5771 5772 5774 5775 5778 5781 5782 5785 5786 5790 5793 5795 5801 5806 5812 5815 5820 5822 5824 5825 5826 5828 5829 5829 5828 5827 5829 5829
5806 5803 5800 5794 5787 5783 5779 5776 5776 5775 5773 5772 5769 5768 5767 5767 5765 5764 5764 5763 5763 5764 5767 5769 5769 5773 5776 5777 5777 5780 5782 5788 5792 5799 5801 5807 5812 5816 5819 5821 5822 5824 5825 5827 5827 5826 5826 5826 5827
5803 5800 5796 5789 5782 5778 5775 5775 5774 5773 5770 5768 5766 5765 5763 5759 5757 5757 5756 5753 5753 5757 5759 5761 5762 5764 5765 5770 5771 5771 5775 5780 5788 5795 5796 5802 5808 5811 5816 5818 5818 5819 5822 5825 5824 5823 5823 5823 5824
5800 5796 5791 5784 5779 5776 5773 5772 5772 5768 5765 5764 5763 5761 5758 5754 5752 5748 5744 5740 5739 5745 5751 5750 5750 5754 5757 5762 5765 5767 5772 5776 5784 5789 5792 5798 5804 5808 5812 5813 5816 5819 5820 5822 5820 5819 5820 5820 5820
5795 5792 5787 5781 5776 5773 5771 5771 5767 5764 5763 5761 5759 5757 5754 5748 5744 5739 5736 5731 5730 5732 5738 5739 5743 5745 5748 5755 5757 5763 5769 5772 5778 5785 5786 5796 5801 5806 5808 5811 5814 5814 5816 5818 5817 5816 5817 5816 5817
5792 5788 5782 5776 5772 5769 5767 5766 5764 5760 5760 5758 5756 5754 5750 5745 5740 5736 5733 5728 5727 5728 5732 5733 5734 5735 5730 5745 5745 5753 5758 5766 5776 5779 5782 5791 5798 5802 5805 5806 5809 5810 5812 5814 5815 5814 5813 5813 5813
5787 5784 5777 5772 5769 5768 5765 5763 5761 5759 5756 5754 5751 5749 5748 5743 5740 5737 5731 5726 5725 5726 5728 5728 5727 5733 5737 5742 5747 5750 5754 5764 5771 5774 5780 5787 5793 5798 5802 5803 5805 5806 5808 5810 5812 5809 5809 5809 5808
5784 5780 5774 5769 5767 5767 5764 5761 5759 5756 5753 5751 5748 5746 5744 5740 5739 5737 5733 5728 5724 5724 5724 5727 5726 5728 5727 5732 5740 5739 5749 5758 5764 5771 5777 5783 5788 5795 5799 5800 5801 5803 5803 5805 5807 5808 5807 5805 5804
5780 5776 5771 5767 5764 5764 5761 5758 5755 5754 5752 5750 5747 5744 5741 5738 5735 5734 5732 5729 5725 5725 5725 5726 5725 5726 5722 5712 5720 5732 5740 5749 5761 5766 5773 5780 5785 5791 5794 5796 5799 5799 5798 5798 5799 5800 5801 5801 5801
5778 5774 5768 5765 5763 5761 5759 5755 5754 5753 5750 5747 5745 5740 5736 5733 5733 5734 5732 5731 5727 5726 5725 5725 5726 5726 5725 5715 5719 5728 5739 5750 5754 5761 5770 5776 5780 5786 5790 5794 5795 5795 5793 5792 5794 5795 5797 5797 5797
5774 5771 5767 5765 5762 5759 5756 5753 5753 5751 5749 5746 5742 5737 5732 5728 5731 5730 5731 5729 5728 5726 5727 5727 5727 5726 5727 5730 5730 5732 5739 5749 5757 5759 5767 5771 5776 5782 5786 5788 5790 5790 5789 5787 5787 5790 5792 5792 5793
5771 5771 5765 5760 5758 5755 5753 5751 5752 5749 5746 5741 5738 5733 5728 5727 5728 5728 5729 5728 5725 5724 5725 5726 5727 5729 5730 5731 5733 5738 5745 5752 5754 5759 5764 5765 5772 5777 5781 5782 5785 5785 5783 5783 5782 5783 5787 5789 5790
5766 5765 5762 5758 5756 5754 5751 5751 5750 5747 5742 5737 5733 5731 5727 5726 5726 5725 5725 5727 5725 5724 5723 5725 5727 5729 5732 5733 5736 5741 5745 5747 5750 5755 5759 5763 5770 5773 5776 5778 5780 5780 5779 5778 5777 5778 5782 5785 5787
5763 5762 5760 5758 5755 5753 5751 5749 5749 5744 5738 5735 5731 5729 5727 5725 5724 5725 5724 5724 5726 5725 5725 5724 5727 5730 5732 5733 5737 5740 5743 5747 5752 5755 5758 5763 5766 5770 5772 5773 5774 5772 5773 5774 5774 5776 5779 5781 5784
5761 5761 5757 5756 5751 5750 5750 5748 5747 5743 5738 5733 5728 5727 5726 5726 5722 5720 5721 5720 5723 5723 5723 5723 5724 5726 5728 5732 5736 5738 5742 5745 5749 5754 5758 5760 5762 5764 5767 5768 5767 5768 5768 5769 5770 5773 5776 5778 5780
5759 5758 5755 5754 5751 5748 5747 5746 5747 5743 5738 5733 5729 5728 5725 5722 5721 5719 5715 5717 5717 5719 5720 5721 5722 5725 5728 5731 5734 5737 5740 5744 5747 5749 5752 5754 5757 5760 5761 5762 5765 5764 5764 5766 5769 5772 5774 5775 5777
5753 5753 5752 5754 5750 5747 5744 5743 5745 5744 5737 5733 5730 5730 5728 5724 5723 5718 5714 5714 5714 5715 5718 5720 5721 5724 5727 5730 5732 5735 5736 5740 5743 5746 5750 5752 5754 5754 5754 5757 5758 5758 5762 5764 5767 5769 5771 5771 5772
5748 5750 5749 5748 5747 5744 5741 5740 5742 5743 5738 5732 5729 5730 5730 5727 5724 5720 5717 5712 5709 5710 5715 5716 5720 5724 5726 5728 5731 5733 5735 5740 5743 5745 5747 5749 5750 5751 5753 5754 5754 5755 5760 5762 5765 5766 5767 5767 5768
5744 5745 5746 5744 5741 5742 5737 5737 5738 5743 5737 5734 5732 5729 5727 5727 5725 5721 5719 5713 5711 5710 5716 5717 5720 5722 5724 5726 5727 5730 5731 5733 5737 5740 5742 5744 5746 5747 5748 5750 5751 5755 5756 5758 5760 5761 5762 5763 5763
5740 5741 5742 5740 5736 5739 5732 5734 5734 5739 5737 5734 5733 5731 5727 5725 5725 5721 5717 5716 5717 5719 5720 5720 5722 5723 5723 5726 5728 5731 5730 5734 5737 5738 5740 5743 5746 5745 5748 5747 5749 5751 5752 5754 5756 5757 5757 5757 5758
5736 5738 5736 5735 5734 5735 5730 5731 5731 5734 5736 5734 5730 5729 5728 5727 5726 5725 5720 5721 5721 5723 5723 5725 5725 5725 5726 5727 5729 5731 5732 5734 5736 5739 5739 5740 5744 5746 5746 5744 5746 5748 5750 5752 5752 5751 5751 5751 5751
5735 5730 5731 5730 5729 5729 5729 5726 5729 5730 5732 5731 5730 5728 5727 5727 5727 5726 5726 5726 5725 5726 5727 5726 5727 5727 5728 5729 5730 5731 5734 5734 5736 5736 5738 5741 5740 5742 5743 5743 5744 5745 5748 5749 5747 5746 5745 5746 5745
5728 5722 5724 5724 5725 5725 5725 5723 5726 5727 5730 5730 5729 5727 5726 5726 5727 5727 5727 5727 5727 5726 5727 5729 5731 5731 5731 5729 5729 5733 5732 5734 5734 5734 5737 5738 5738 5740 5741 5742 5741 5741 5741 5741 5741 5741 5740 5739 5739
5718 5718 5718 5719 5719 5723 5719 5720 5721 5724 5728 5730 5728 5727 5726 5725 5726 5727 5727 5725 5725 5725 5725 5725 5725 5726 5726 5726 5728 5729 5731 5732 5732 5733 5735 5736 5737 5738 5737 5736 5736 5738 5738 5737 5735 5734 5734 5733 5733
5711 5713 5712 5714 5715 5719 5715 5714 5718 5719 5723 5729 5729 5726 5725 5725 5725 5725 5725 5724 5724 5724 5724 5724 5724 5724 5725 5726 5728 5730 5731 5731 5730 5730 5731 5733 5734 5733 5732 5733 5732 5733 5732 5731 5728 5726 5725 5726 5725
5705 5702 5712 5708 5708 5710 5709 5712 5714 5713 5718 5722 5726 5725 5724 5723 5722 5723 5723 5722 5722 5722 5722 5722 5723 5725 5725 5725 5726 5727 5728 5728 5728 5728 5728 5728 5729 5729 5729 5728 5728 5728 5726 5725 5721 5718 5716 5716 5715
5692 5700 5700 5698 5699 5702 5703 5706 5708 5708 5712 5714 5718 5719 5720 5720 5720 5720 5719 5718 5718 5718 5719 5720 5720 5721 5722 5722 5722 5722 5723 5722 5722 5724 5726 5725 5724 5723 5720 5719 5717 5716 5712 5712 5712 5711 5705 5705 5706
5684 5685 5689 5693 5691 5693 5697 5699 5706 5704 5706 5709 5710 5711 5713 5714 5715 5716 5715 5713 5712 5713 5715 5716 5716 5716 5717 5717 5718 5718 5718 5718 5718 5719 5720 5720 5719 5716 5714 5712 5708 5702 5702 5700 5704 5700 5694 5698 5695
5676 5679 5683 5683 5684 5688 5692 5694 5698 5700 5700 5702 5704 5705 5706 5707 5709 5711 5708 5709 5708 5708 5709 5711 5712 5712 5711 5709 5711 5710 5712 5712 5712 5713 5714 5713 5711 5707 5705 5701 5698 5696 5696 5694 5695 5694 5692 5687 5684